Location: Warwick
(41.7000°N, 71.4170°W)
Time: 17:56:51
(UTC-04:00)

Tiangong 2 - Visible Passes

Search period start: 16 July 2018 00:00
Search period end: 26 July 2018 00:00
Orbit: 386 x 394 km, 42.8° (Epoch: 16 July)

Date Brightness Start Highest point End Pass type
(mag) Time Alt. Az. Time Alt. Az. Time Alt. Az.
16 Jul 1.2 22:16:10 10° W 22:19:21 72° N 22:20:11 44° ENE visible
17 Jul 1.3 21:18:27 10° W 21:21:38 70° N 21:24:48 10° E visible
17 Jul 2.6 22:55:23 10° W 22:57:16 32° W 22:57:16 32° W visible
18 Jul 1.0 21:57:41 10° WNW 22:00:52 86° N 22:01:59 37° E visible
19 Jul 1.3 20:59:58 10° W 21:03:10 73° N 21:06:20 10° E visible
19 Jul 2.3 22:36:55 10° W 22:39:01 33° WSW 22:39:01 33° WSW visible
20 Jul 1.1 21:39:10 10° W 21:42:21 68° SSW 21:43:43 30° ESE visible
21 Jul 2.6 22:18:33 10° W 22:20:45 25° SW 22:20:45 25° SW visible
22 Jul 1.7 21:20:41 10° W 21:23:44 42° SSW 21:25:29 21° SE visible
23 Jul 3.2 22:00:33 10° WSW 22:02:32 16° SSW 22:02:35 16° SSW visible
24 Jul 2.7 21:02:19 10° W 21:05:01 25° SSW 21:07:23 12° SSE visible
